EIN646 EGCC-EIDW

Flight info

Callsign EIN646
Flight time 0h 31m
Altitude 24000
Route ASMIM L975 WAL L10 PENIL L28 LELDO M145 BAGSO BAGSO4L
Aircraft A320/M-SDE3FGHIRWY/LB1

Departure

Time 2026-05-05 09:54
Airport Manchester Airport (EGCC)

Arrival

Time 2026-05-05 10:25
Airport Dublin Airport (EIDW)
Time Latitude Longitude Altitude Speed Heading
2026-05-05 09:26 53.35931 -2.27517 243 ft 0 kts 95°
2026-05-05 09:43 53.35933 -2.27556 243 ft 4 kts 95°
2026-05-05 09:43 53.35938 -2.27599 242 ft 4 kts 117°
2026-05-05 09:44 53.35954 -2.27630 242 ft 4 kts 168°
2026-05-05 09:44 53.35967 -2.27632 242 ft 1 kts 186°
2026-05-05 09:44 53.35969 -2.27632 242 ft 0 kts 186°
2026-05-05 09:48 53.35953 -2.27634 242 ft 6 kts 186°
2026-05-05 09:48 53.35910 -2.27642 242 ft 6 kts 186°
2026-05-05 09:48 53.35870 -2.27649 242 ft 6 kts 186°
2026-05-05 09:48 53.35819 -2.27658 241 ft 8 kts 185°
2026-05-05 09:49 53.35764 -2.27666 241 ft 8 kts 186°
2026-05-05 09:49 53.35719 -2.27707 240 ft 7 kts 228°
2026-05-05 09:49 53.35681 -2.27783 239 ft 12 kts 230°
2026-05-05 09:49 53.35614 -2.27921 238 ft 18 kts 231°
2026-05-05 09:50 53.35530 -2.28086 238 ft 20 kts 219°
2026-05-05 09:50 53.35395 -2.28162 234 ft 22 kts 186°
2026-05-05 09:50 53.35254 -2.28264 231 ft 23 kts 219°
2026-05-05 09:50 53.35143 -2.28484 229 ft 26 kts 232°
2026-05-05 09:51 53.35039 -2.28698 226 ft 17 kts 228°
2026-05-05 09:51 53.34973 -2.28812 224 ft 13 kts 226°
2026-05-05 09:51 53.34913 -2.28916 223 ft 12 kts 226°
2026-05-05 09:51 53.34856 -2.29017 222 ft 12 kts 225°
2026-05-05 09:52 53.34784 -2.29072 220 ft 11 kts 187°
2026-05-05 09:52 53.34711 -2.29041 224 ft 11 kts 154°
2026-05-05 09:52 53.34675 -2.28950 223 ft 9 kts 81°
2026-05-05 09:52 53.34704 -2.28882 220 ft 6 kts 50°
2026-05-05 09:53 53.34771 -2.28742 223 ft 38 kts 51°
2026-05-05 09:53 53.35094 -2.28076 232 ft 105 kts 51°
2026-05-05 09:53 53.35665 -2.26896 252 ft 156 kts 48°
2026-05-05 09:53 53.36348 -2.25493 841 ft 153 kts 47°
2026-05-05 09:54 53.37025 -2.24097 1526 ft 157 kts 47°
2026-05-05 09:54 53.37765 -2.22577 1943 ft 179 kts 47°
2026-05-05 09:54 53.38720 -2.21116 2275 ft 199 kts 24°
2026-05-05 09:54 53.40129 -2.20739 2581 ft 220 kts 348°
2026-05-05 09:55 53.41504 -2.22045 3025 ft 243 kts 309°
2026-05-05 09:55 53.42231 -2.24690 3800 ft 255 kts 288°
2026-05-05 09:55 53.42818 -2.27510 4711 ft 259 kts 294°
2026-05-05 09:55 53.43544 -2.30299 5599 ft 263 kts 296°
2026-05-05 09:56 53.44337 -2.33061 6454 ft 268 kts 297°
2026-05-05 09:56 53.45186 -2.35869 7293 ft 270 kts 297°
2026-05-05 09:56 53.46053 -2.38683 8188 ft 272 kts 297°
2026-05-05 09:56 53.46798 -2.41616 9052 ft 275 kts 283°
2026-05-05 09:57 53.46860 -2.44839 9896 ft 280 kts 262°
2026-05-05 09:57 53.46506 -2.48072 10430 ft 294 kts 260°
2026-05-05 09:57 53.46116 -2.51586 10665 ft 317 kts 261°
2026-05-05 09:57 53.45703 -2.55327 11057 ft 332 kts 260°
2026-05-05 09:58 53.45279 -2.59194 11739 ft 338 kts 260°
2026-05-05 09:58 53.44993 -2.61778 12232 ft 340 kts 260°
2026-05-05 09:58 53.44413 -2.66996 13212 ft 345 kts 260°
2026-05-05 09:58 53.43973 -2.70972 13929 ft 348 kts 260°
2026-05-05 09:59 53.43671 -2.73688 14355 ft 350 kts 260°
2026-05-05 09:59 53.43227 -2.77677 14999 ft 353 kts 260°
2026-05-05 09:59 53.42774 -2.81742 15635 ft 356 kts 259°
2026-05-05 09:59 53.42317 -2.85841 16276 ft 359 kts 259°
2026-05-05 10:00 53.41854 -2.89974 16900 ft 362 kts 259°
2026-05-05 10:00 53.41386 -2.94146 17525 ft 365 kts 259°
2026-05-05 10:00 53.40910 -2.98366 18134 ft 369 kts 259°
2026-05-05 10:00 53.40428 -3.02620 18685 ft 373 kts 259°
2026-05-05 10:01 53.40028 -3.06925 19211 ft 376 kts 265°
2026-05-05 10:01 53.40110 -3.11328 19734 ft 381 kts 277°
2026-05-05 10:01 53.40741 -3.15662 20263 ft 385 kts 289°
2026-05-05 10:01 53.41910 -3.19730 20788 ft 391 kts 301°
2026-05-05 10:02 53.43478 -3.23478 21309 ft 394 kts 304°
2026-05-05 10:02 53.45086 -3.27232 21829 ft 397 kts 304°
2026-05-05 10:02 53.46703 -3.31024 22321 ft 400 kts 304°
2026-05-05 10:02 53.48306 -3.34802 22797 ft 404 kts 304°
2026-05-05 10:03 53.49936 -3.38653 23272 ft 407 kts 304°
2026-05-05 10:03 53.51587 -3.42557 23724 ft 410 kts 304°
2026-05-05 10:03 53.53247 -3.46486 23994 ft 412 kts 304°
2026-05-05 10:03 53.54904 -3.50415 24053 ft 413 kts 304°
2026-05-05 10:04 53.56563 -3.54360 24061 ft 413 kts 303°
2026-05-05 10:04 53.58223 -3.58315 24063 ft 413 kts 304°
2026-05-05 10:04 53.59884 -3.62262 24066 ft 413 kts 304°
2026-05-05 10:04 53.61458 -3.66292 24065 ft 411 kts 297°
2026-05-05 10:05 53.62651 -3.70653 24062 ft 410 kts 290°
2026-05-05 10:05 53.63716 -3.75116 24064 ft 410 kts 290°
2026-05-05 10:05 53.64764 -3.79518 24067 ft 410 kts 290°
2026-05-05 10:05 53.65826 -3.83981 24066 ft 409 kts 290°
2026-05-05 10:06 53.66885 -3.88440 24071 ft 409 kts 290°
2026-05-05 10:06 53.67948 -3.92906 24074 ft 409 kts 290°
2026-05-05 10:06 53.69008 -3.97360 24073 ft 409 kts 290°
2026-05-05 10:06 53.70070 -4.01827 24079 ft 409 kts 290°
2026-05-05 10:07 53.71086 -4.06320 24076 ft 408 kts 286°
2026-05-05 10:07 53.71712 -4.10931 24080 ft 406 kts 276°
2026-05-05 10:07 53.71938 -4.15675 24080 ft 405 kts 272°
2026-05-05 10:07 53.72108 -4.20410 23747 ft 400 kts 272°
2026-05-05 10:08 53.72282 -4.25078 23144 ft 396 kts 272°
2026-05-05 10:08 53.72456 -4.29694 22645 ft 391 kts 272°
2026-05-05 10:08 53.72626 -4.34238 22186 ft 385 kts 272°
2026-05-05 10:08 53.72790 -4.38731 21724 ft 381 kts 272°
2026-05-05 10:09 53.72952 -4.43173 21270 ft 376 kts 273°
2026-05-05 10:09 53.73109 -4.47515 20822 ft 373 kts 273°
2026-05-05 10:09 53.73268 -4.51870 20365 ft 369 kts 273°
2026-05-05 10:09 53.73423 -4.56183 19914 ft 366 kts 273°
2026-05-05 10:10 53.73573 -4.60453 19452 ft 363 kts 273°
2026-05-05 10:10 53.73717 -4.64700 18996 ft 360 kts 273°
2026-05-05 10:10 53.73662 -4.68914 18498 ft 359 kts 260°
2026-05-05 10:10 53.72902 -4.72913 17977 ft 357 kts 247°
2026-05-05 10:11 53.71913 -4.76750 17518 ft 354 kts 247°
2026-05-05 10:11 53.70938 -4.80492 17058 ft 351 kts 247°
2026-05-05 10:11 53.69949 -4.84259 16585 ft 348 kts 247°
2026-05-05 10:11 53.68967 -4.87982 16137 ft 346 kts 247°
2026-05-05 10:12 53.67988 -4.91691 15677 ft 345 kts 247°
2026-05-05 10:12 53.67017 -4.95375 15217 ft 343 kts 247°
2026-05-05 10:12 53.66043 -4.99060 14761 ft 342 kts 247°
2026-05-05 10:12 53.65076 -5.02711 14301 ft 341 kts 247°
2026-05-05 10:13 53.64109 -5.06366 13839 ft 340 kts 248°
2026-05-05 10:13 53.63156 -5.09969 13348 ft 339 kts 247°
2026-05-05 10:13 53.62200 -5.13578 12880 ft 336 kts 248°
2026-05-05 10:13 53.61247 -5.17160 12411 ft 334 kts 248°
2026-05-05 10:14 53.60299 -5.20721 11938 ft 332 kts 248°
2026-05-05 10:14 53.59353 -5.24268 11470 ft 330 kts 248°
2026-05-05 10:14 53.58424 -5.27745 10979 ft 328 kts 247°
2026-05-05 10:14 53.57493 -5.31223 10606 ft 319 kts 247°
2026-05-05 10:15 53.56608 -5.34508 10432 ft 297 kts 248°
2026-05-05 10:15 53.55771 -5.37618 10002 ft 289 kts 248°
2026-05-05 10:15 53.54950 -5.40676 9870 ft 286 kts 248°
2026-05-05 10:15 53.54134 -5.43717 9681 ft 284 kts 248°
2026-05-05 10:16 53.53329 -5.46713 9453 ft 276 kts 248°
2026-05-05 10:16 53.52551 -5.49601 9294 ft 261 kts 248°
2026-05-05 10:16 53.51821 -5.52305 8947 ft 250 kts 248°
2026-05-05 10:16 53.51102 -5.54966 8594 ft 248 kts 248°
2026-05-05 10:17 53.50391 -5.57598 8259 ft 247 kts 248°
2026-05-05 10:17 53.49691 -5.60190 7917 ft 246 kts 248°
2026-05-05 10:17 53.48986 -5.62796 7562 ft 245 kts 248°
2026-05-05 10:17 53.48281 -5.65398 7211 ft 244 kts 248°
2026-05-05 10:18 53.47578 -5.67980 6861 ft 243 kts 248°
2026-05-05 10:18 53.46877 -5.70554 6517 ft 241 kts 248°
2026-05-05 10:18 53.46180 -5.73112 6162 ft 240 kts 248°
2026-05-05 10:18 53.45486 -5.75657 5847 ft 240 kts 248°
2026-05-05 10:19 53.44792 -5.78195 5521 ft 239 kts 248°
2026-05-05 10:19 53.44099 -5.80729 5215 ft 238 kts 248°
2026-05-05 10:19 53.43407 -5.83255 4903 ft 238 kts 248°
2026-05-05 10:19 53.42717 -5.85771 4586 ft 237 kts 248°
2026-05-05 10:20 53.42039 -5.88241 4269 ft 235 kts 248°
2026-05-05 10:20 53.41357 -5.90722 3973 ft 232 kts 248°
2026-05-05 10:20 53.40693 -5.93140 3752 ft 225 kts 250°
2026-05-05 10:20 53.40376 -5.95619 3563 ft 212 kts 274°
2026-05-05 10:21 53.40494 -5.98000 3442 ft 201 kts 278°
2026-05-05 10:21 53.40625 -6.00279 3238 ft 195 kts 278°
2026-05-05 10:21 53.40754 -6.02516 2946 ft 191 kts 278°
2026-05-05 10:21 53.40879 -6.04696 2679 ft 183 kts 279°
2026-05-05 10:22 53.40997 -6.06783 2441 ft 176 kts 278°
2026-05-05 10:22 53.41111 -6.08786 2202 ft 170 kts 279°
2026-05-05 10:22 53.41219 -6.10685 1973 ft 163 kts 279°
2026-05-05 10:22 53.41324 -6.12537 1752 ft 155 kts 279°
2026-05-05 10:23 53.41420 -6.14262 1544 ft 144 kts 279°
2026-05-05 10:23 53.41514 -6.15915 1348 ft 141 kts 279°
2026-05-05 10:23 53.41606 -6.17542 1146 ft 139 kts 280°
2026-05-05 10:23 53.41695 -6.19145 972 ft 138 kts 277°
2026-05-05 10:24 53.41767 -6.20725 804 ft 136 kts 278°
2026-05-05 10:24 53.41861 -6.22296 581 ft 134 kts 278°
2026-05-05 10:24 53.41946 -6.23852 404 ft 134 kts 279°
2026-05-05 10:24 53.42041 -6.25395 215 ft 130 kts 278°
2026-05-05 10:25 53.42115 -6.26655 211 ft 84 kts 274°
2026-05-05 10:25 53.42153 -6.27348 210 ft 35 kts 275°
2026-05-05 10:25 53.42178 -6.27738 216 ft 32 kts 283°
2026-05-05 10:25 53.42264 -6.28048 213 ft 19 kts 303°
2026-05-05 10:26 53.42357 -6.28084 211 ft 16 kts 68°
2026-05-05 10:26 53.42355 -6.27904 213 ft 15 kts 96°
2026-05-05 10:26 53.42346 -6.27742 211 ft 13 kts 94°
2026-05-05 10:26 53.42337 -6.27572 216 ft 18 kts 95°
2026-05-05 10:27 53.42327 -6.27356 211 ft 18 kts 94°
2026-05-05 10:27 53.42313 -6.27155 215 ft 16 kts 96°
2026-05-05 10:27 53.42303 -6.26974 211 ft 16 kts 95°
2026-05-05 10:27 53.42292 -6.26766 213 ft 18 kts 95°
2026-05-05 10:28 53.42281 -6.26570 211 ft 16 kts 95°
2026-05-05 10:28 53.42272 -6.26393 214 ft 14 kts 95°
2026-05-05 10:28 53.42262 -6.26219 215 ft 17 kts 95°
2026-05-05 10:28 53.42251 -6.26000 211 ft 21 kts 95°
2026-05-05 10:29 53.42236 -6.25745 219 ft 22 kts 95°
2026-05-05 10:29 53.42221 -6.25484 214 ft 23 kts 96°
2026-05-05 10:29 53.42206 -6.25212 219 ft 24 kts 95°
2026-05-05 10:29 53.42192 -6.24938 219 ft 19 kts 97°
2026-05-05 10:30 53.42181 -6.24728 211 ft 17 kts 96°
2026-05-05 10:30 53.42170 -6.24543 211 ft 15 kts 95°
2026-05-05 10:30 53.42170 -6.24410 213 ft 7 kts 54°
2026-05-05 10:30 53.42212 -6.24401 211 ft 6 kts 350°
2026-05-05 10:31 53.42237 -6.24420 216 ft 3 kts 332°
2026-05-05 10:31 53.42250 -6.24432 215 ft 0 kts 332°
2026-05-05 10:31 53.42251 -6.24433 214 ft 0 kts 332°